^^
Saratoga-Weather Station Historical Data
Daily Summary for November 23, 2020 Units:  Metric    English   Both
Daily Weekly Monthly Yearly Custom
  High: Low: Average:
Temperature: 8.7 °C 5.1 °C 6.9 °C
Dew Point: 7.2 °C 3.9 °C 5.5 °C
Humidity: 97% 83% 91%
Wind Speed: 11.3km/h 0km/h 0.5km/h
Wind Gust: 12.9km/h - -
Wind- - SW
Pressure: 1029.5 hPa 1027.4 hPa -
Precipitation: 0.0 mm    
Historical Graphs
 
 
Tabular Data for November 23, 2020
Time Temperature Dew Point Pressure Wind Wind Speed Wind Gust Humidity Rainfall Rate (Hourly) solar
00:01 6.2 °C 4 °C 1027.4 hPa Calm   1.6 km/h 86% 0.0 mm 0 W/m2
00:06 6.2 °C 4 °C 1027.4 hPa Calm   1.6 km/h 86% 0.0 mm 0 W/m2
00:11 6.2 °C 4 °C 1027.8 hPa Calm     86% 0.0 mm 0 W/m2
00:16 6.2 °C 4 °C 1027.4 hPa Calm   1.6 km/h 86% 0.0 mm 0 W/m2
00:21 6.2 °C 4.2 °C 1027.8 hPa Calm     87% 0.0 mm 0 W/m2
00:26 6.2 °C 4.2 °C 1027.8 hPa Calm     87% 0.0 mm 0 W/m2
00:31 6.2 °C 4.2 °C 1027.8 hPa Calm     87% 0.0 mm 0 W/m2
00:36 6.1 °C 4.1 °C 1027.8 hPa Calm     87% 0.0 mm 0 W/m2
00:41 6.1 °C 4.1 °C 1027.8 hPa Calm     87% 0.0 mm 0 W/m2
00:46 6.1 °C 4.1 °C 1027.4 hPa Calm     87% 0.0 mm 0 W/m2
00:51 6.1 °C 4.3 °C 1027.8 hPa Calm     88% 0.0 mm 0 W/m2
00:56 6.1 °C 4.3 °C 1027.4 hPa Calm     88% 0.0 mm 0 W/m2
01:01 6.1 °C 4.3 °C 1027.8 hPa Calm     88% 0.0 mm 0 W/m2
01:06 6.1 °C 4.3 °C 1027.8 hPa Calm     88% 0.0 mm 0 W/m2
01:11 6.1 °C 4.3 °C 1027.8 hPa Calm     88% 0.0 mm 0 W/m2
01:16 6.1 °C 4.3 °C 1027.4 hPa Calm     88% 0.0 mm 0 W/m2
01:22 6.1 °C 4.4 °C 1027.8 hPa Calm     89% 0.0 mm 0 W/m2
01:27 6.1 °C 4.4 °C 1027.8 hPa Calm     89% 0.0 mm 0 W/m2
01:32 6.1 °C 4.4 °C 1027.4 hPa Calm     89% 0.0 mm 0 W/m2
01:37 6.1 °C 4.4 °C 1027.8 hPa Calm     89% 0.0 mm 0 W/m2
01:42 6.1 °C 4.4 °C 1027.4 hPa Calm   3.2 km/h 89% 0.0 mm 0 W/m2
01:47 6.1 °C 4.4 °C 1027.4 hPa Calm   1.6 km/h 89% 0.0 mm 0 W/m2
01:52 6.1 °C 4.4 °C 1027.4 hPa Calm   1.6 km/h 89% 0.0 mm 0 W/m2
01:57 6.2 °C 4.5 °C 1027.4 hPa Calm     89% 0.0 mm 0 W/m2
02:02 6.2 °C 4.4 °C 1027.4 hPa NE 4.7 km/h 4.8 km/h 88% 0.0 mm 0 W/m2
02:07 6.3 °C 4.5 °C 1027.8 hPa NE 1.4 km/h 1.6 km/h 88% 0.0 mm 0 W/m2
02:12 6.3 °C 4.5 °C 1027.4 hPa Calm     88% 0.0 mm 0 W/m2
02:17 6.3 °C 4.5 °C 1027.4 hPa Calm   3.2 km/h 88% 0.0 mm 0 W/m2
02:22 6.3 °C 4.3 °C 1027.4 hPa Calm     87% 0.0 mm 0 W/m2
02:27 6.4 °C 4.4 °C 1027.4 hPa Calm   3.2 km/h 87% 0.0 mm 0 W/m2
02:32 6.4 °C 4.4 °C 1027.4 hPa Calm   1.6 km/h 87% 0.0 mm 0 W/m2
02:37 6.4 °C 4.2 °C 1027.4 hPa Calm   4.8 km/h 86% 0.0 mm 0 W/m2
02:42 6.5 °C 4.3 °C 1027.4 hPa Calm     86% 0.0 mm 0 W/m2
02:47 6.5 °C 4.3 °C 1027.4 hPa ESE 1.4 km/h 4.8 km/h 86% 0.0 mm 0 W/m2
02:52 6.6 °C 4.4 °C 1027.4 hPa Calm   3.2 km/h 86% 0.0 mm 0 W/m2
02:57 6.6 °C 4.3 °C 1027.4 hPa Calm     85% 0.0 mm 0 W/m2
03:02 6.6 °C 4.3 °C 1027.4 hPa Calm   3.2 km/h 85% 0.0 mm 0 W/m2
03:07 6.6 °C 4.1 °C 1027.4 hPa WNW 3.2 km/h 3.2 km/h 84% 0.0 mm 0 W/m2
03:12 6.7 °C 4 °C 1027.4 hPa WNW 3.2 km/h 4.8 km/h 83% 0.0 mm 0 W/m2
03:17 6.7 °C 4 °C 1027.8 hPa Calm   1.6 km/h 83% 0.0 mm 0 W/m2
03:22 6.7 °C 4.2 °C 1027.4 hPa Calm     84% 0.0 mm 0 W/m2
03:27 6.6 °C 4.1 °C 1027.4 hPa West 1.4 km/h 1.6 km/h 84% 0.0 mm 0 W/m2
03:32 6.6 °C 3.9 °C 1027.4 hPa WSW 1.4 km/h 6.4 km/h 83% 0.0 mm 0 W/m2
03:37 6.6 °C 3.9 °C 1027.4 hPa Calm     83% 0.0 mm 0 W/m2
03:42 6.6 °C 3.9 °C 1027.4 hPa Calm   3.2 km/h 83% 0.0 mm 0 W/m2
03:47 6.6 °C 3.9 °C 1027.4 hPa Calm   1.6 km/h 83% 0.0 mm 0 W/m2
03:52 6.6 °C 3.9 °C 1027.4 hPa WNW 3.2 km/h 4.8 km/h 83% 0.0 mm 0 W/m2
03:57 6.6 °C 3.9 °C 1027.4 hPa Calm   1.6 km/h 83% 0.0 mm 0 W/m2
04:02 6.6 °C 3.9 °C 1027.4 hPa WSW 11.1 km/h 12.9 km/h 83% 0.0 mm 0 W/m2
04:07 6.6 °C 3.9 °C 1027.4 hPa SW 4.7 km/h 6.4 km/h 83% 0.0 mm 0 W/m2
04:12 6.6 °C 4.1 °C 1027.4 hPa West 11.3 km/h 11.3 km/h 84% 0.0 mm 0 W/m2
04:17 6.6 °C 4.3 °C 1027.4 hPa West 1.4 km/h 3.2 km/h 85% 0.0 mm 0 W/m2
04:22 6.6 °C 4.3 °C 1027.4 hPa WNW 1.4 km/h 6.4 km/h 85% 0.0 mm 0 W/m2
04:27 6.6 °C 4.1 °C 1027.4 hPa Calm   4.8 km/h 84% 0.0 mm 0 W/m2
04:32 6.6 °C 4.1 °C 1027.4 hPa Calm   1.6 km/h 84% 0.0 mm 0 W/m2
04:37 6.6 °C 4.1 °C 1027.4 hPa Calm   1.6 km/h 84% 0.0 mm 0 W/m2
04:42 6.6 °C 4.1 °C 1027.4 hPa NW 1.4 km/h 1.6 km/h 84% 0.0 mm 0 W/m2
04:47 6.6 °C 4.3 °C 1027.4 hPa Calm   4.8 km/h 85% 0.0 mm 0 W/m2
04:52 6.6 °C 4.3 °C 1027.4 hPa Calm     85% 0.0 mm 0 W/m2
04:57 6.5 °C 4 °C 1027.4 hPa Calm     84% 0.0 mm 0 W/m2
05:02 6.5 °C 4.2 °C 1027.4 hPa Calm     85% 0.0 mm 0 W/m2
05:07 6.5 °C 4.2 °C 1027.4 hPa Calm   1.6 km/h 85% 0.0 mm 0 W/m2
05:12 6.5 °C 4 °C 1027.4 hPa Calm     84% 0.0 mm 0 W/m2
05:18 6.4 °C 3.9 °C 1027.8 hPa Calm     84% 0.0 mm 0 W/m2
05:23 6.4 °C 3.9 °C 1027.8 hPa Calm     84% 0.0 mm 0 W/m2
05:28 6.4 °C 3.9 °C 1027.8 hPa Calm     84% 0.0 mm 0 W/m2
05:33 6.4 °C 4.1 °C 1027.8 hPa Calm     85% 0.0 mm 0 W/m2
05:38 6.4 °C 4.1 °C 1027.4 hPa Calm     85% 0.0 mm 0 W/m2
05:43 6.4 °C 4.1 °C 1027.4 hPa Calm     85% 0.0 mm 0 W/m2
05:48 6.4 °C 4.2 °C 1027.4 hPa Calm     86% 0.0 mm 0 W/m2
05:53 6.4 °C 4.2 °C 1027.4 hPa Calm     86% 0.0 mm 0 W/m2
05:58 6.3 °C 4.1 °C 1027.4 hPa Calm     86% 0.0 mm 0 W/m2
06:03 6.3 °C 4.1 °C 1027.4 hPa Calm     86% 0.0 mm 0 W/m2
06:08 6.3 °C 4.1 °C 1027.8 hPa Calm     86% 0.0 mm 0 W/m2
06:13 6.3 °C 4.1 °C 1027.8 hPa Calm     86% 0.0 mm 0 W/m2
06:18 6.3 °C 4.1 °C 1027.4 hPa Calm     86% 0.0 mm 0 W/m2
06:23 6.3 °C 4.1 °C 1027.4 hPa Calm     86% 0.0 mm 0 W/m2
06:28 6.3 °C 4.1 °C 1027.4 hPa Calm   1.6 km/h 86% 0.0 mm 0 W/m2
06:33 6.3 °C 4 °C 1027.8 hPa NNW 3.2 km/h 3.2 km/h 85% 0.0 mm 0 W/m2
06:38 6.4 °C 4.1 °C 1027.8 hPa Calm     85% 0.0 mm 0 W/m2
06:43 6.4 °C 3.9 °C 1027.8 hPa Calm     84% 0.0 mm 0 W/m2
06:48 6.4 °C 4.1 °C 1027.8 hPa Calm     85% 0.0 mm 0 W/m2
06:53 6.4 °C 4.1 °C 1028.1 hPa Calm     85% 0.0 mm 0 W/m2
06:58 6.4 °C 4.2 °C 1028.1 hPa Calm     86% 0.0 mm 0 W/m2
07:03 6.4 °C 4.2 °C 1028.1 hPa Calm     86% 0.0 mm 0 W/m2
07:08 6.4 °C 4.2 °C 1028.1 hPa Calm     86% 0.0 mm 0 W/m2
07:13 6.4 °C 4.2 °C 1028.1 hPa Calm     86% 0.0 mm 0 W/m2
07:18 6.4 °C 4.2 °C 1028.1 hPa WNW 1.4 km/h 3.2 km/h 86% 0.0 mm 0 W/m2
07:23 6.4 °C 4.2 °C 1028.1 hPa Calm   1.6 km/h 86% 0.0 mm 0 W/m2
07:28 6.4 °C 4.4 °C 1028.1 hPa WNW 1.4 km/h 3.2 km/h 87% 0.0 mm 0 W/m2
07:33 6.3 °C 4.3 °C 1028.1 hPa Calm   3.2 km/h 87% 0.0 mm 0 W/m2
07:38 6.3 °C 4.5 °C 1028.1 hPa NNW 3.2 km/h 4.8 km/h 88% 0.0 mm 0 W/m2
07:43 6.3 °C 4.6 °C 1028.1 hPa NW 1.4 km/h 3.2 km/h 89% 0.0 mm 0 W/m2
07:48 6.2 °C 4.5 °C 1028.1 hPa NNW 1.4 km/h 4.8 km/h 89% 0.0 mm 0 W/m2
07:53 6.2 °C 4.7 °C 1028.5 hPa NNW 3.2 km/h 3.2 km/h 90% 0.0 mm 0 W/m2
07:58 6.1 °C 4.7 °C 1028.5 hPa Calm   4.8 km/h 91% 0.0 mm 0 W/m2
08:03 6.1 °C 4.7 °C 1028.5 hPa North 1.4 km/h 3.2 km/h 91% 0.0 mm 0 W/m2
08:08 6 °C 4.6 °C 1028.5 hPa Calm     91% 0.0 mm 0 W/m2
08:13 6 °C 4.8 °C 1028.5 hPa Calm   1.6 km/h 92% 0.0 mm 0 W/m2
08:18 6 °C 4.8 °C 1028.5 hPa Calm   1.6 km/h 92% 0.0 mm 0 W/m2
08:23 6 °C 4.8 °C 1028.5 hPa Calm     92% 0.0 mm 0 W/m2
08:28 6 °C 4.8 °C 1028.5 hPa Calm     92% 0.0 mm 7 W/m2
08:33 6 °C 4.8 °C 1028.5 hPa Calm     92% 0.0 mm 9 W/m2
08:38 6 °C 5 °C 1028.5 hPa Calm     93% 0.0 mm 9 W/m2
08:43 6 °C 5 °C 1028.5 hPa North 1.4 km/h 3.2 km/h 93% 0.0 mm 11 W/m2
08:48 6.1 °C 5.1 °C 1028.8 hPa NW 1.4 km/h 3.2 km/h 93% 0.0 mm 14 W/m2
08:53 6.1 °C 5.1 °C 1028.8 hPa Calm   3.2 km/h 93% 0.0 mm 19 W/m2
08:58 6.2 °C 5.2 °C 1028.8 hPa Calm   3.2 km/h 93% 0.0 mm 26 W/m2
09:03 6.2 °C 5.2 °C 1028.8 hPa Calm   1.6 km/h 93% 0.0 mm 19 W/m2
09:08 6.2 °C 5.2 °C 1028.8 hPa NE 1.4 km/h 1.6 km/h 93% 0.0 mm 18 W/m2
09:13 6.3 °C 5.3 °C 1029.1 hPa Calm   3.2 km/h 93% 0.0 mm 18 W/m2
09:18 6.3 °C 5.3 °C 1028.8 hPa Calm     93% 0.0 mm 21 W/m2
09:23 6.3 °C 5.3 °C 1029.1 hPa Calm   3.2 km/h 93% 0.0 mm 19 W/m2
09:28 6.4 °C 5.4 °C 1029.1 hPa Calm   3.2 km/h 93% 0.0 mm 26 W/m2
09:33 6.4 °C 5.4 °C 1029.1 hPa Calm   3.2 km/h 93% 0.0 mm 32 W/m2
09:38 6.4 °C 5.4 °C 1029.1 hPa Calm   1.6 km/h 93% 0.0 mm 37 W/m2
09:43 6.5 °C 5.4 °C 1029.5 hPa Calm     93% 0.0 mm 28 W/m2
09:48 6.6 °C 5.5 °C 1029.1 hPa Calm     93% 0.0 mm 37 W/m2
09:53 6.6 °C 5.5 °C 1029.1 hPa Calm     93% 0.0 mm 54 W/m2
09:58 6.7 °C 5.6 °C 1029.1 hPa Calm     93% 0.0 mm 46 W/m2
10:03 6.7 °C 5.6 °C 1029.1 hPa Calm     93% 0.0 mm 49 W/m2
10:08 6.8 °C 5.7 °C 1029.5 hPa Calm     93% 0.0 mm 60 W/m2
10:13 6.8 °C 5.7 °C 1029.5 hPa Calm   1.6 km/h 93% 0.0 mm 67 W/m2
10:18 6.9 °C 5.8 °C 1029.5 hPa Calm     93% 0.0 mm 83 W/m2
10:23 6.9 °C 5.8 °C 1029.5 hPa Calm   1.6 km/h 93% 0.0 mm 93 W/m2
10:28 7.1 °C 5.9 °C 1029.5 hPa Calm   3.2 km/h 92% 0.0 mm 102 W/m2
10:33 7.2 °C 6 °C 1029.5 hPa WNW 3.2 km/h 3.2 km/h 92% 0.0 mm 95 W/m2
10:38 7.3 °C 6.1 °C 1029.5 hPa Calm   1.6 km/h 92% 0.0 mm 74 W/m2
10:43 7.4 °C 6.2 °C 1029.5 hPa NW 3.2 km/h 4.8 km/h 92% 0.0 mm 77 W/m2
10:48 7.4 °C 6.2 °C 1029.5 hPa NW 1.4 km/h 1.6 km/h 92% 0.0 mm 98 W/m2
10:53 7.5 °C 6.3 °C 1029.5 hPa NW 4.8 km/h 4.8 km/h 92% 0.0 mm 102 W/m2
10:58 7.6 °C 6.4 °C 1029.5 hPa NW 1.4 km/h 4.8 km/h 92% 0.0 mm 81 W/m2
11:03 7.6 °C 6.4 °C 1029.5 hPa Calm   3.2 km/h 92% 0.0 mm 81 W/m2
11:08 7.6 °C 6.4 °C 1029.5 hPa North 1.4 km/h 1.6 km/h 92% 0.0 mm 109 W/m2
11:13 7.7 °C 6.3 °C 1029.5 hPa Calm   1.6 km/h 91% 0.0 mm 95 W/m2
11:18 7.7 °C 6.3 °C 1029.5 hPa NW 4.7 km/h 4.8 km/h 91% 0.0 mm 102 W/m2
11:23 7.8 °C 6.4 °C 1029.5 hPa NW 4.7 km/h 6.4 km/h 91% 0.0 mm 91 W/m2
11:28 7.8 °C 6.4 °C 1029.5 hPa NW 1.4 km/h 4.8 km/h 91% 0.0 mm 90 W/m2
11:33 7.8 °C 6.4 °C 1029.5 hPa Calm   1.6 km/h 91% 0.0 mm 84 W/m2
11:38 7.8 °C 6.4 °C 1029.5 hPa Calm   3.2 km/h 91% 0.0 mm 97 W/m2
11:43 7.9 °C 6.5 °C 1029.5 hPa Calm   1.6 km/h 91% 0.0 mm 128 W/m2
11:48 7.9 °C 6.5 °C 1029.5 hPa Calm     91% 0.0 mm 142 W/m2
11:53 8.1 °C 6.7 °C 1029.5 hPa Calm     91% 0.0 mm 155 W/m2
11:58 8.2 °C 6.8 °C 1029.1 hPa East 3.2 km/h 6.4 km/h 91% 0.0 mm 244 W/m2
12:03 8.4 °C 7 °C 1029.1 hPa NW 3.2 km/h 4.8 km/h 91% 0.0 mm 287 W/m2
12:08 8.6 °C 7.2 °C 1029.1 hPa Calm   1.6 km/h 91% 0.0 mm 250 W/m2
12:13 8.7 °C 7.2 °C 1029.1 hPa West 4.7 km/h 4.8 km/h 90% 0.0 mm 88 W/m2
12:18 8.7 °C 7 °C 1029.1 hPa West 1.4 km/h 4.8 km/h 89% 0.0 mm 83 W/m2
12:23 8.6 °C 6.9 °C 1029.1 hPa WNW 1.4 km/h 3.2 km/h 89% 0.0 mm 70 W/m2
12:28 8.6 °C 6.9 °C 1029.1 hPa NW 1.4 km/h 4.8 km/h 89% 0.0 mm 65 W/m2
12:33 8.6 °C 6.9 °C 1029.1 hPa WNW 4.7 km/h 4.8 km/h 89% 0.0 mm 67 W/m2
12:39 8.6 °C 6.9 °C 1029.1 hPa NW 3.2 km/h 3.2 km/h 89% 0.0 mm 70 W/m2
12:44 8.6 °C 6.9 °C 1029.1 hPa NW 1.4 km/h 4.8 km/h 89% 0.0 mm 69 W/m2
12:49 8.6 °C 7.1 °C 1029.1 hPa Calm     90% 0.0 mm 67 W/m2
12:54 8.6 °C 7.1 °C 1029.1 hPa WNW 1.4 km/h 3.2 km/h 90% 0.0 mm 72 W/m2
12:59 8.6 °C 6.9 °C 1029.1 hPa WNW 3.2 km/h 6.4 km/h 89% 0.0 mm 67 W/m2
13:04 8.5 °C 6.8 °C 1029.1 hPa WNW 1.4 km/h 3.2 km/h 89% 0.0 mm 67 W/m2
13:09 8.5 °C 6.8 °C 1028.8 hPa WNW 3.2 km/h 6.4 km/h 89% 0.0 mm 67 W/m2
13:14 8.4 °C 6.9 °C 1028.8 hPa Calm   3.2 km/h 90% 0.0 mm 60 W/m2
13:19 8.5 °C 7 °C 1028.8 hPa Calm   1.6 km/h 90% 0.0 mm 76 W/m2
13:24 8.5 °C 7 °C 1028.8 hPa Calm   1.6 km/h 90% 0.0 mm 86 W/m2
13:29 8.5 °C 7 °C 1028.8 hPa Calm   3.2 km/h 90% 0.0 mm 74 W/m2
13:34 8.5 °C 7 °C 1028.8 hPa Calm     90% 0.0 mm 70 W/m2
13:39 8.6 °C 7.1 °C 1028.8 hPa Calm   3.2 km/h 90% 0.0 mm 69 W/m2
13:44 8.6 °C 7.1 °C 1028.8 hPa Calm   1.6 km/h 90% 0.0 mm 53 W/m2
13:49 8.6 °C 7.1 °C 1028.8 hPa Calm     90% 0.0 mm 42 W/m2
13:54 8.6 °C 7.1 °C 1028.8 hPa Calm   1.6 km/h 90% 0.0 mm 47 W/m2
13:59 8.6 °C 7.1 °C 1028.8 hPa Calm     90% 0.0 mm 49 W/m2
14:04 8.6 °C 7.1 °C 1028.8 hPa Calm   1.6 km/h 90% 0.0 mm 53 W/m2
14:09 8.6 °C 7.1 °C 1028.8 hPa Calm   1.6 km/h 90% 0.0 mm 51 W/m2
14:14 8.7 °C 7.2 °C 1028.8 hPa Calm   1.6 km/h 90% 0.0 mm 51 W/m2
14:19 8.7 °C 7.2 °C 1028.8 hPa Calm   4.8 km/h 90% 0.0 mm 53 W/m2
14:24 8.7 °C 7.2 °C 1028.8 hPa Calm     90% 0.0 mm 56 W/m2
14:29 8.7 °C 7.2 °C 1028.8 hPa NE 3.2 km/h 4.8 km/h 90% 0.0 mm 58 W/m2
14:34 8.7 °C 7.2 °C 1028.8 hPa NE 1.4 km/h 3.2 km/h 90% 0.0 mm 42 W/m2
14:39 8.7 °C 7.2 °C 1028.8 hPa Calm   3.2 km/h 90% 0.0 mm 37 W/m2
14:44 8.7 °C 7.2 °C 1028.8 hPa Calm   4.8 km/h 90% 0.0 mm 35 W/m2
14:49 8.7 °C 7.2 °C 1028.8 hPa Calm   3.2 km/h 90% 0.0 mm 25 W/m2
14:54 8.7 °C 7.2 °C 1028.8 hPa ENE 4.7 km/h 4.8 km/h 90% 0.0 mm 25 W/m2
14:59 8.7 °C 7.2 °C 1028.8 hPa ENE 1.4 km/h 4.8 km/h 90% 0.0 mm 23 W/m2
15:04 8.6 °C 7.1 °C 1028.8 hPa Calm   4.8 km/h 90% 0.0 mm 28 W/m2
15:09 8.5 °C 7 °C 1028.8 hPa Calm   1.6 km/h 90% 0.0 mm 25 W/m2
15:14 8.4 °C 7 °C 1028.8 hPa ENE 3.2 km/h 4.8 km/h 91% 0.0 mm 30 W/m2
15:19 8.4 °C 7 °C 1028.8 hPa East 1.4 km/h 3.2 km/h 91% 0.0 mm 25 W/m2
15:24 8.3 °C 6.9 °C 1028.8 hPa Calm   4.8 km/h 91% 0.0 mm 28 W/m2
15:29 8.3 °C 7.1 °C 1028.8 hPa Calm     92% 0.0 mm 28 W/m2
15:34 8.3 °C 7.1 °C 1028.8 hPa Calm   4.8 km/h 92% 0.0 mm 25 W/m2
15:39 8.3 °C 7.1 °C 1028.8 hPa East 3.2 km/h 4.8 km/h 92% 0.0 mm 19 W/m2
15:44 8.2 °C 7 °C 1028.8 hPa Calm   3.2 km/h 92% 0.0 mm 18 W/m2
15:49 8.2 °C 7.1 °C 1028.8 hPa ENE 1.4 km/h 3.2 km/h 93% 0.0 mm 14 W/m2
15:54 8.2 °C 7.1 °C 1028.8 hPa Calm   3.2 km/h 93% 0.0 mm 12 W/m2
15:59 8.1 °C 7 °C 1028.8 hPa NE 1.4 km/h 1.6 km/h 93% 0.0 mm 12 W/m2
16:04 8.1 °C 7 °C 1028.8 hPa Calm     93% 0.0 mm 9 W/m2
16:09 8 °C 7.1 °C 1028.8 hPa Calm   3.2 km/h 94% 0.0 mm 7 W/m2
16:14 7.9 °C 7 °C 1028.8 hPa Calm     94% 0.0 mm 5 W/m2
16:19 7.9 °C 7 °C 1028.8 hPa NE 1.4 km/h 3.2 km/h 94% 0.0 mm 5 W/m2
16:24 7.9 °C 7 °C 1028.8 hPa Calm     94% 0.0 mm 5 W/m2
16:29 7.8 °C 6.9 °C 1028.8 hPa Calm   3.2 km/h 94% 0.0 mm 5 W/m2
16:34 7.8 °C 6.9 °C 1028.8 hPa Calm     94% 0.0 mm 0 W/m2
16:39 7.8 °C 6.9 °C 1028.8 hPa Calm     94% 0.0 mm 0 W/m2
16:44 7.8 °C 6.9 °C 1028.8 hPa Calm   1.6 km/h 94% 0.0 mm 0 W/m2
16:49 7.7 °C 6.9 °C 1028.5 hPa Calm   1.6 km/h 95% 0.0 mm 0 W/m2
16:54 7.7 °C 6.9 °C 1028.5 hPa Calm     95% 0.0 mm 0 W/m2
16:59 7.7 °C 6.9 °C 1028.5 hPa Calm   1.6 km/h 95% 0.0 mm 0 W/m2
17:04 7.7 °C 6.9 °C 1028.8 hPa Calm     95% 0.0 mm 0 W/m2
17:09 7.6 °C 6.9 °C 1028.8 hPa Calm     95% 0.0 mm 0 W/m2
17:14 7.6 °C 6.9 °C 1028.8 hPa Calm     95% 0.0 mm 0 W/m2
17:19 7.6 °C 6.9 °C 1028.8 hPa Calm     95% 0.0 mm 0 W/m2
17:24 7.6 °C 6.9 °C 1028.5 hPa Calm     95% 0.0 mm 0 W/m2
17:29 7.6 °C 6.9 °C 1028.8 hPa Calm     95% 0.0 mm 0 W/m2
17:34 7.6 °C 6.9 °C 1028.5 hPa Calm     95% 0.0 mm 0 W/m2
17:39 7.6 °C 6.9 °C 1028.5 hPa Calm     95% 0.0 mm 0 W/m2
17:44 7.6 °C 6.9 °C 1028.5 hPa Calm     95% 0.0 mm 0 W/m2
17:49 7.6 °C 6.9 °C 1028.5 hPa Calm     95% 0.0 mm 0 W/m2
17:54 7.6 °C 6.9 °C 1028.5 hPa Calm     95% 0.0 mm 0 W/m2
17:59 7.6 °C 6.9 °C 1028.8 hPa Calm     95% 0.0 mm 0 W/m2
18:04 7.6 °C 6.9 °C 1028.8 hPa Calm     95% 0.0 mm 0 W/m2
18:09 7.6 °C 6.9 °C 1028.8 hPa Calm     95% 0.0 mm 0 W/m2
18:14 7.6 °C 6.9 °C 1028.8 hPa Calm     95% 0.0 mm 0 W/m2
18:19 7.6 °C 6.9 °C 1028.8 hPa Calm     95% 0.0 mm 0 W/m2
18:24 7.6 °C 6.9 °C 1028.8 hPa Calm     95% 0.0 mm 0 W/m2
18:29 7.6 °C 6.9 °C 1028.8 hPa Calm     95% 0.0 mm 0 W/m2
18:34 7.6 °C 6.9 °C 1028.5 hPa Calm     95% 0.0 mm 0 W/m2
18:39 7.5 °C 6.8 °C 1028.8 hPa Calm     95% 0.0 mm 0 W/m2
18:44 7.5 °C 6.8 °C 1028.5 hPa Calm     95% 0.0 mm 0 W/m2
18:49 7.4 °C 6.7 °C 1028.8 hPa Calm     95% 0.0 mm 0 W/m2
18:54 7.4 °C 6.7 °C 1028.5 hPa Calm     95% 0.0 mm 0 W/m2
18:59 7.3 °C 6.6 °C 1028.5 hPa Calm     95% 0.0 mm 0 W/m2
19:04 7.2 °C 6.3 °C 1028.8 hPa Calm     94% 0.0 mm 0 W/m2
19:09 7.1 °C 6.2 °C 1028.8 hPa Calm     94% 0.0 mm 0 W/m2
19:14 7 °C 6.1 °C 1028.8 hPa Calm     94% 0.0 mm 0 W/m2
19:19 6.9 °C 6 °C 1028.8 hPa Calm     94% 0.0 mm 0 W/m2
19:24 6.8 °C 5.9 °C 1028.8 hPa Calm     94% 0.0 mm 0 W/m2
19:29 6.7 °C 5.8 °C 1028.8 hPa Calm     94% 0.0 mm 0 W/m2
19:34 6.6 °C 5.7 °C 1028.8 hPa Calm     94% 0.0 mm 0 W/m2
19:39 6.4 °C 5.5 °C 1028.8 hPa Calm     94% 0.0 mm 0 W/m2
19:44 6.3 °C 5.4 °C 1028.8 hPa Calm     94% 0.0 mm 0 W/m2
19:49 6.1 °C 5.2 °C 1028.8 hPa Calm     94% 0.0 mm 0 W/m2
19:54 6 °C 5.1 °C 1028.8 hPa Calm     94% 0.0 mm 0 W/m2
19:59 5.9 °C 5 °C 1028.8 hPa Calm     94% 0.0 mm 0 W/m2
20:04 5.8 °C 4.9 °C 1028.8 hPa Calm     94% 0.0 mm 0 W/m2
20:10 5.7 °C 4.8 °C 1028.8 hPa Calm     94% 0.0 mm 0 W/m2
20:15 5.7 °C 5 °C 1028.8 hPa Calm     95% 0.0 mm 0 W/m2
20:20 5.6 °C 4.9 °C 1028.8 hPa Calm     95% 0.0 mm 0 W/m2
20:25 5.5 °C 4.8 °C 1028.8 hPa Calm     95% 0.0 mm 0 W/m2
20:30 5.4 °C 4.7 °C 1028.8 hPa Calm     95% 0.0 mm 0 W/m2
20:35 5.3 °C 4.6 °C 1028.8 hPa Calm     95% 0.0 mm 0 W/m2
20:40 5.3 °C 4.6 °C 1028.8 hPa Calm     95% 0.0 mm 0 W/m2
20:45 5.3 °C 4.6 °C 1028.5 hPa Calm     95% 0.0 mm 0 W/m2
20:50 5.2 °C 4.5 °C 1028.8 hPa Calm     95% 0.0 mm 0 W/m2
20:55 5.2 °C 4.5 °C 1028.8 hPa Calm     95% 0.0 mm 0 W/m2
21:00 5.1 °C 4.4 °C 1028.8 hPa Calm     95% 0.0 mm 0 W/m2
21:05 5.1 °C 4.4 °C 1028.8 hPa Calm     95% 0.0 mm 0 W/m2
21:10 5.1 °C 4.4 °C 1028.8 hPa Calm     95% 0.0 mm 0 W/m2
21:15 5.1 °C 4.4 °C 1028.8 hPa Calm     95% 0.0 mm 0 W/m2
21:20 5.1 °C 4.4 °C 1028.8 hPa Calm     95% 0.0 mm 0 W/m2
21:25 5.1 °C 4.5 °C 1028.8 hPa Calm     96% 0.0 mm 0 W/m2
21:30 5.2 °C 4.6 °C 1028.8 hPa Calm     96% 0.0 mm 0 W/m2
21:35 5.2 °C 4.6 °C 1028.8 hPa Calm     96% 0.0 mm 0 W/m2
21:40 5.3 °C 4.7 °C 1028.8 hPa Calm     96% 0.0 mm 0 W/m2
21:45 5.3 °C 4.7 °C 1028.8 hPa Calm     96% 0.0 mm 0 W/m2
21:50 5.5 °C 4.9 °C 1028.8 hPa Calm     96% 0.0 mm 0 W/m2
21:55 5.7 °C 5.1 °C 1028.8 hPa Calm     96% 0.0 mm 0 W/m2
22:00 5.8 °C 5.2 °C 1028.8 hPa Calm     96% 0.0 mm 0 W/m2
22:05 6 °C 5.6 °C 1028.8 hPa Calm     97% 0.0 mm 0 W/m2
22:10 6.1 °C 5.7 °C 1028.8 hPa Calm     97% 0.0 mm 0 W/m2
22:15 6.2 °C 5.6 °C 1028.5 hPa Calm     96% 0.0 mm 0 W/m2
22:20 6.2 °C 5.6 °C 1028.8 hPa Calm     96% 0.0 mm 0 W/m2
22:25 6.2 °C 5.6 °C 1028.5 hPa Calm     96% 0.0 mm 0 W/m2
22:30 6.3 °C 5.7 °C 1028.5 hPa Calm     96% 0.0 mm 0 W/m2
22:35 6.3 °C 5.7 °C 1028.5 hPa Calm     96% 0.0 mm 0 W/m2
22:40 6.3 °C 5.7 °C 1028.5 hPa Calm     96% 0.0 mm 0 W/m2
22:45 6.4 °C 5.8 °C 1028.5 hPa Calm     96% 0.0 mm 0 W/m2
22:50 6.4 °C 5.8 °C 1028.5 hPa Calm     96% 0.0 mm 0 W/m2
22:55 6.4 °C 5.8 °C 1028.5 hPa Calm     96% 0.0 mm 0 W/m2
23:00 6.4 °C 5.8 °C 1028.5 hPa Calm     96% 0.0 mm 0 W/m2
23:05 6.3 °C 5.7 °C 1028.5 hPa Calm     96% 0.0 mm 0 W/m2
23:10 6.4 °C 5.8 °C 1028.5 hPa Calm     96% 0.0 mm 0 W/m2
23:15 6.4 °C 5.8 °C 1028.1 hPa Calm     96% 0.0 mm 0 W/m2
23:20 6.4 °C 5.8 °C 1028.1 hPa Calm     96% 0.0 mm 0 W/m2
23:25 6.4 °C 5.8 °C 1028.1 hPa Calm     96% 0.0 mm 0 W/m2
23:30 6.4 °C 5.8 °C 1028.1 hPa Calm     96% 0.0 mm 0 W/m2
23:35 6.3 °C 5.7 °C 1028.1 hPa Calm     96% 0.0 mm 0 W/m2
23:40 6.3 °C 5.7 °C 1028.1 hPa Calm   3.2 km/h 96% 0.0 mm 0 W/m2
23:45 6.3 °C 5.7 °C 1028.1 hPa Calm     96% 0.0 mm 0 W/m2
23:50 6.2 °C 5.6 °C 1028.1 hPa Calm   3.2 km/h 96% 0.0 mm 0 W/m2
23:55 6.2 °C 5.6 °C 1028.1 hPa Calm     96% 0.0 mm 0 W/m2
Juneau County Weather
Compliments of Weather Underground - 2 mb